Regional Weather Roundup
Issued by NWS Cleveland, OH

Home | Current Version | Previous Version | Text Only | Print | Product List | Glossary Off
Versions: 1 2 3 4 5 6 7 8 9 10 11 12 13 14 15 16 17 18 19 20 21 22 23 24 25 26 27 28 29 30 31 32 33 34 35 36 37 38 39 40 41 42 43 44 45 46 47 48 49 50

000
ASUS41 KCLE 221210
RWRCLE
OHIO REGIONAL WEATHER ROUNDUP
NATIONAL WEATHER SERVICE CLEVELAND, OH
700 AM EST WED NOV 22 2017

NOTE: "FAIR" INDICATES FEW OR NO CLOUDS BELOW 12,000 FEET WITH NO
SIGNIFICANT WEATHER AND/OR OBSTRUCTIONS TO VISIBILITY.

OHZ001>008-015>018-024>027-034-035-043-044-221300-
   NORTHWEST OHIO

CITY           SKY/WX    TMP DP  RH WIND       PRES   REMARKS
DEFIANCE       CLOUDY    32  19  58 N10G20    30.24R WCI  24
FINDLAY        CLOUDY    33  22  63 NW12      30.20R WCI  24
TOLEDO EXPRESS CLOUDY    32  21  64 N12       30.23R WCI  23
TOLEDO EXEC    CLOUDY    32  21  64 NW13      30.24R WCI  22
LIMA           CLOUDY    31  21  66 NW14G24   30.21R WCI  21
$$

OHZ009>014-019>023-028>033-038-089-221300-
   NORTHEAST OHIO

CITY           SKY/WX    TMP DP  RH WIND       PRES   REMARKS
CLE-HOPKINS    CLOUDY    35  25  66 NW15      30.19R WCI  25
CLE-LAKEFRONT  CLOUDY    36  25  64 NW18G26   30.16R
CUY CO. ARPT   CLOUDY    36  23  60 NW16      30.15
LORAIN-ELYRIA  CLOUDY    33  21  61 N8        30.19R WCI  26
ASHTABULA      CLOUDY    34  27  75 NW8       30.13R WCI  27
AKRON-CANTON   FLURRIES  33  29  85 NW13      30.12R WCI  24
WOOSTER        NOT AVBL
MANSFIELD      CLOUDY    32  26  78 NW9       30.15R WCI  24
YOUNGSTOWN     FLURRIES  33  29  85 NW18G25   30.10R WCI  22
$$

OHZ042-051>053-060>062-070>072-077>081-221300-
  SOUTHWEST OHIO

CITY           SKY/WX    TMP DP  RH WIND       PRES   REMARKS
CINC-COVINGTON CLEAR     28  25  88 NW7       30.22S WCI  21
CINC-LUNKEN    CLEAR     30  25  81 NW3       30.26R
HAMILTON       MOCLDY    27  25  92 W3        30.25R
DAYTON         CLOUDY    32  27  81 NW8       30.22R WCI  25
WRIGHT-PAT AFB CLOUDY    33  28  82 NW6       30.21R WCI  27
DAYTON GENERAL CLOUDY    30  25  81 NW3       30.21R
WILMINGTON     PTCLDY    28  27  96 NW5       30.21R WCI  23
$$

OHZ036-037-039>041-045>050-054>059-063>069-073>076-082>088-221300-
  CENTRAL AND SOUTHEAST OHIO

CITY           SKY/WX    TMP DP  RH WIND       PRES   REMARKS
COLUMBUS       CLOUDY    35  26  69 NW12      30.19R WCI  27
OSU AIRPORT    CLOUDY    33  25  72 NW10      30.18R WCI  25
BOLTON FIELD   CLOUDY    32  29  88 NW5       30.20R WCI  27
RICKENBACK AFB CLOUDY    31  29  93 NW5       30.20R WCI  27
NEWARK         CLOUDY    35  27  72 NW8       30.17R WCI  29
MARION         CLOUDY    33  24  69 NW12      30.19R WCI  24
LANCASTER      CLOUDY    32  29  88 W5        30.18R WCI  27
ZANESVILLE     CLOUDY    35  29  78 NW7       30.16R WCI  29
NEW PHILLY     NOT AVBL
$$




USA.gov is the U.S. government's official web portal to all federal, state and local government web resources and services.